STARLINK-32142, 60291

Orbit data source: Space-Track

STARLINK-32142, 60291 is a payload satellite owned by SpaceX/Seattle (US) in LEO that was launched on Sun, 28 Jul 2024 UTC via an FALCON 9 launch vehicle from the Air Force Eastern Test Range (AFETR). Payloads include a variety of satellites, spacecraft, and rockets equipped with specific instruments for various scientific and technological missions. These include communications satellites like Starlink; space stations such as the ISS; scientific satellites like the Hubble; Earth observation satellites from companies like Planet Labs, Umbra, and HawkEye 360; GPS; miniature CubeSats for education and research; and military/defense satellites.

Loading next visibility...
STARLINK-32142 details
Identifier
60291, 2024-132P
Orbit
LEO
Last TLE update16 hours ago
Origin
Flag of USSpaceX/Seattle (US)
ManufacturerSpaceX/Seattle
MissionOperational spacecraft
Bus & MotorSTARLINK V2M, Unknown motor
Mass730 kg wet, ~700 kg dry
Launch date (UTC)
2024-07-28 (5 months ago)
Launch vehicle
FALCON 9
Launch site
Air Force Eastern Test Range (AFETR)
Object type
Payload
Rocket body
Debris
Shape & HBRUnknown
Radar Cross SectionLarge (>1 m²)

Expand to show TLE details & history

TLE from 16 hours ago
0 STARLINK-32142
1 60291U 24132P   24355.87202417  .00001682  00000-0  68950-4 0  9999
2 60291  53.1617 313.6516 0000994  95.3792 264.7322 15.30177340 23614
Epoch: 2024-12-20T20:55Z
Definitive object data (Epoch: 2024-12-20T20:55:42.888Z)
Latitude-0.00003°
Longitude-90.20843°
Altitude476.245 km
Speed7.629 km/s
True Right ascension20h 54m 36s
True Declination0° 00' 00"
Sunlit
Object was in daylight at TLE epoch
Visualization TLE readout
Latitude17.06186°
Longitude-80.04347°
Altitude475.382 km
Speed7.631 km/s
Apparent Right ascension22h 29m 57s
Apparent Declination-10° 39' 10"
Sunlit
Object is in daylight
Visualization observer readout
Local Sidereal Time11:43:40
Azimuth34.245° NE
Elevation-56.482°
Doppler factor1
Orbital elements
Apogee altitude476.22 km
Perigee altitude474.858 km
Semi-major axis6,853.676 km
Eccentricity0.0000994
Inclination53.1617°
RAAN313.6516°
Arg. of periapsis95.3792°
True anomaly264.72086°
Mean anomaly264.7322°
Eccentric anomaly264.72653°
Mean motion3.82523 °/min
BSTAR0.00006895
Orbital period94.11 mins
Loading maneuver chart data...
Loading historical data...
Loading historical data...
Loading historical data...
Loading historical data...
Loading historical data...
Loading historical data...
Loading historical data...

STARLINK-32142 Visibility forecast

Observer location: undefined°, undefined

Span
Click to sort rows by Start time (UTC) header in descending order
Start Az.
Max El. time (UTC)
Max El. Az.
Max El.
End time (UTC)
End Az.
6 mins2024-12-21 23:44:50.356Z215.715° SW2024-12-21 23:47:50.356Z140.53° SSE41.379°2024-12-21 23:50:50.356Z57.938° ENE
4 mins2024-12-22 01:24:50.356Z306.063° NW2024-12-22 01:25:50.356Z329.117° NNW20.54°2024-12-22 01:28:50.356Z26.168° NE
5 mins2024-12-22 06:20:50.356Z327.143° NNW2024-12-22 06:22:50.356Z31.561° NE38.339°2024-12-22 06:25:50.356Z111.173° ESE
|